DMSP 5D-2 F13 DEB

Satellite information

Favourite Embed

Satellite Type and Status

DEBRISIN ORBIT

Key statistics

Satellite DMSP 5D-2 F13 DEB at a glance.

Uptime

11223

Days in orbit

Revolutions

≈ 14.3

Per day

Orbit

SSO

Sun Synchronous Orbit

Inclination

98.9

Latest

Satellite identification and parameters

Extended collection of information and parameters for DMSP 5D-2 F13 DEB.

Object identification

Identified? True

Debris? True

Object name: DMSP 5D-2 F13 DEB

International designator: 1995-015EX

Object number (NORAD): 40600

Object ID (CCSDS): 40600

Country: UNITED STATES OF AMERICA (US)

Current information (Y/N): Y

RCS size: SMALL

Orbital parameters

Period: 100.406 minutes

Inclination: 98.8579 deg

SMA: 7155.916 km

Apoapsis: 804.476 km

Periapsis: 751.085 km

RAAN: 21.7762 deg

Eccentricy: 0.00373056

Argument of periapsis: 219.6781 deg

Mean anomaly: 140.1672 deg

Mean motion: 14.34184267 rev/day

Mean motion (dot): 0.00012788 rev/day2

B* drag term: 0.0045367328 1/REarth

Two-line elements (TLE)

Creation date: Dec. 11, 2025, 3:54 a.m.

Reference frame: TEME

Reference center: EARTH

Epoch: Dec. 10, 2025, 7:48 p.m. UTC

TLE line 0: 0 DMSP 5D-2 F13 DEB

TLE line 1: 1 40600U 95015EX 25344.82516744 .00012788 00000-0 45367-2 0 9998

TLE line 2: 2 40600 98.8579 21.7762 0037306 219.6781 140.1672 14.34184267548857

Live tracking on map

Real-time ground track for satellite DMSP 5D-2 F13 DEB.

In-orbit conjunctions

A list of the most updated potential collisions computed for object DMSP 5D-2 F13 DEB.

Target Orbit TCA Probability of collision Miss distance Type
DELTA 1 DEB SSO 2025-08-06 06:45:59 0.0001023752 62.0 (m) DEBRIS
TIROS 10 SSO 2025-03-03 04:49:35 0.0001000835 649.0 (m) PAYLOAD
DMSP 5D-2 F8 DEB SSO 2024-09-12 22:47:13 0.0001807758 510.0 (m) DEBRIS
METEOR 2-8 DEB LEO 2024-07-27 06:24:35 0.0002122937 76.0 (m) DEBRIS

Associated space launch

Military meteorological satellite

DMSP 5D-2 F13 DEB was lifted into orbit during the mission ‘Atlas E | DMSP-5D2 F13’, on board a Atlas E space rocket.

The launch took place on March 24, 1995, 2:05 p.m. from Space Launch Complex 3W.

For more information about the launch, click the button.

Launch to space Atlas E | DMSP-5D2 F13
Atlas E | DMSP-5D2 F13

Agency: N/A

Status: Launch Successful

Launch date: March 24, 1995, 2:05 p.m. UTC

Rocket: Atlas E

Launch pad: Space Launch Complex 3W

Location: Vandenberg SFB, CA, USA

...

Latest news about this satellite

There are no fresh news available about this satellite. Check back as we update our databases every day.


Newsletter sign-up

Weekly statistics, charts and insights to help you stay on top of the space industry.